Location: Gerlach
(40.6516°N, 119.3568°W)
Time: 15:45:46
(UTC-07:00)

A-11 Canister half - Pass Details

Date: 25 February 2024
Orbit: 1525 x 1683 km, 47.3° (Epoch: 21 April)

Event Time Altitude Azimuth Distance (km) Brightness Sun altitude
Rises 22:13:23 0° 262° (W) 4,750 11.9 -49.0°
Reaches altitude 10° 22:16:33 10° 266° (W) 3,748 11.3 -49.4°
Enters shadow 22:20:28 28° 275° (W) 2,586 10.3 -50.0°
